[[{"header":{"parameterUnit":"m.s-1","parameterCategory":1,"la1":30.2991,"la2":30.254,"lo1":-89.0895,"lo2":-89.0444,"dy":0.0017,"dx":0.0017,"nx":28,"ny":28,"refTime":"2023-08-15T03:00:00:Z","depth":0,"parameterNumber":2,"parameterNumberName":"U-component_of_WINDS"},"data":[0,0,0,0,0,0,0,0,0,0,0,0,0,0,0,0,0,0,0,0,0,0,0,0,0,0,0,0,0,0,0,0,0,0,0,0,0,0,0,0,0,0,0,0,0,0,0,0,0,0,0,0,0,0,0,0,0,0,1.0592,1.0594,0,1.0752,1.0754,1.0756,1.0824,1.0823,1.0823,1.0823,1.0986,1.099,1.0995,0,0,0,0,0,0,0,0,0,0,0,0,0,1.0343,1.0347,1.0592,1.0594,1.0596,1.0752,1.0754,1.0757,1.0824,1.0823,1.0823,1.0822,1.0984,1.099,1.0995,0,0,0,0,0,0,0,0,0,0,0,0,0,1.0472,1.0349,1.0592,1.0648,1.0655,1.0752,1.0754,1.0757,1.0824,1.0823,1.0823,1.0822,1.0982,1.0989,1.0996,1.1048,0,0,1.1017,1.102,0,0,0,0,0,0,0,0,1.0464,1.0481,1.0638,1.0645,1.0652,1.0768,1.0726,1.0855,1.0824,1.076,1.0823,1.0822,1.0914,1.0926,1.0957,1.1056,1.1063,1.1018,1.1022,1.1025,1.1027,0,0,0,0,0,0,0,1.0455,1.0474,1.0655,1.064,1.0649,1.0665,1.0683,1.0751,1.0837,1.0765,1.077,1.0789,1.0917,1.095,1.0961,1.1065,1.1018,1.1024,1.1028,1.1031,1.1215,1.1216,0,0,0,0,0,0,1.0437,1.0467,1.065,1.066,1.0555,1.067,1.069,1.0731,1.0837,1.0852,1.0789,1.0791,1.0939,1.0953,1.0967,1.1036,1.1025,1.1032,1.1036,1.1214,1.1215,1.1216,0,0,0,0,0,0,1.0432,1.0453,1.0644,1.0565,1.0591,1.0675,1.072,1.0734,1.0767,1.0854,1.087,1.0807,1.0939,1.0958,1.1028,1.1042,1.1035,1.1041,1.1213,1.1215,1.1216,1.1172,0,0,0,0,0,0,1.0424,1.0451,1.0471,1.0565,1.0594,1.0701,1.0721,1.0738,1.0779,1.0784,1.0875,1.089,1.094,1.1017,1.1035,1.1052,1.1046,1.1212,1.1214,1.1215,1.1172,1.1171,1.1171,0,0,0,0,0,1.0415,1.0452,1.0472,1.0494,1.0622,1.0702,1.0719,1.0776,1.078,1.0802,1.0858,1.0887,1.1038,1.1024,1.1044,1.1063,1.1212,1.1214,1.1215,1.1173,1.1172,1.1171,0,0,0,0,0,0,1.0358,1.0466,1.0489,1.0557,1.062,1.0713,1.0742,1.0773,1.0835,1.0837,1.0905,1.0925,1.0989,1.1033,1.1016,1.112,1.1127,1.1133,1.1088,1.1088,1.1087,1.1075,1.1052,0,0,0,0,0,1.0353,1.0409,1.0501,1.0552,1.0583,1.0657,1.0694,1.0732,1.08,1.0827,1.0888,1.0952,1.1014,1.1053,1.1115,1.1179,1.12,1.1203,1.1202,1.12,1.1205,1.1242,1.1244,1.1221,1.1221,1.1221,0,0,1.0344,1.041,1.0441,1.0542,1.0596,1.0652,1.0679,1.0737,1.078,1.0836,1.0906,1.0953,1.1029,1.1096,1.1129,1.1135,1.1216,1.1203,1.1201,1.1206,1.1244,1.1246,1.1248,1.1222,1.1222,1.1222,0,0,1.0356,1.0412,1.0462,1.0514,1.0595,1.0644,1.0656,1.0745,1.0778,1.085,1.0893,1.0944,1.1049,1.1102,1.1143,1.1176,1.1205,1.1194,1.1189,1.1225,1.1226,1.1228,1.124,1.1244,1.1198,1.1198,1.1198,0,1.0335,1.0422,1.0483,1.054,1.0583,1.0636,1.0687,1.0735,1.0831,1.086,1.0865,1.0999,1.1054,1.1135,1.1143,1.1174,1.1189,1.1184,1.1221,1.1224,1.1227,1.1239,1.1243,1.1196,1.1196,1.1196,1.1196,0,1.0392,1.0452,1.0482,1.0574,1.0621,1.0674,1.0743,1.0783,1.0817,1.0865,1.0938,1.1006,1.1082,1.1104,1.1138,1.119,1.1191,1.1208,1.1217,1.1226,1.1238,1.1244,1.1193,1.1194,1.1194,1.1195,0,0,1.0372,1.0498,1.0508,1.0551,1.0644,1.0691,1.0747,1.0822,1.0855,1.092,1.0968,1.1056,1.1072,1.1118,1.1159,1.119,1.1212,1.1204,1.1206,1.1203,1.1274,1.126,1.1265,1.1232,1.1234,1.1234,1.1267,0,1.0397,1.05,1.0556,1.0635,1.0692,1.0743,1.0792,1.0854,1.0901,1.0955,1.1007,1.1068,1.1085,1.1113,1.1146,1.1202,1.1227,1.1201,1.1278,1.128,1.1257,1.1271,1.1258,1.1285,1.1273,1.1273,1.1274,0,1.044,1.0505,1.0589,1.0677,1.0702,1.0745,1.0819,1.087,1.0942,1.0974,1.1025,1.1065,1.1126,1.113,1.1215,1.1195,1.123,1.1262,1.1265,1.1274,1.1277,1.1281,1.1296,1.13,1.1282,1.1282,1.1281,0,1.0418,1.0526,1.0591,1.0626,1.0729,1.0758,1.0802,1.0873,1.0915,1.0979,1.1007,1.1077,1.1116,1.1169,1.1227,1.1225,1.1306,1.1315,1.1334,1.1333,1.1349,1.1347,1.1369,1.1371,1.1371,1.1371,1.1371,0,1.044,1.049,1.0582,1.0622,1.0679,1.0743,1.0798,1.0846,1.0909,1.0959,1.1008,1.1054,1.1128,1.1183,1.1228,1.1291,1.1308,1.1336,1.1347,1.1332,1.1328,1.1355,1.1355,1.1372,1.1372,1.1372,1.1372,0,1.0425,1.0489,1.0563,1.0654,1.0679,1.0717,1.0795,1.0836,1.0885,1.0948,1.0966,1.1044,1.1111,1.1174,1.1264,1.1294,1.1358,1.1373,1.1334,1.134,1.1356,1.1353,1.1396,1.1405,1.14,1.14,1.14,0,1.0435,1.0475,1.0571,1.0608,1.0652,1.0711,1.0754,1.0819,1.0862,1.0946,1.0976,1.1047,1.1107,1.1212,1.1276,1.1345,1.1362,1.1373,1.1373,1.1356,1.1363,1.136,1.1364,1.1371,1.1371,1.1371,1.1371,0,1.0446,1.0476,1.0537,1.0609,1.0659,1.0719,1.078,1.0807,1.0884,1.0929,1.0999,1.1045,1.1137,1.1207,1.1283,1.1328,1.1362,1.137,1.1378,1.1362,1.1338,1.1352,1.133,1.1369,1.1369,1.1369,1.1369,1.1369,1.0444,1.0482,1.0556,1.0622,1.0675,1.0731,1.0774,1.0829,1.0888,1.0968,1.1003,1.1073,1.1144,1.125,1.1295,1.1351,1.1358,1.137,1.1373,1.1375,1.1372,1.1329,1.1365,1.1365,1.1365,1.1365,1.1365,0,1.0459,1.0509,1.0569,1.0653,1.0705,1.0733,1.0802,1.0844,1.0905,1.0969,1.1027,1.1107,1.1175,1.1244,1.1316,1.1347,1.1365,1.1364,1.1362,1.1372,1.1361,1.1346,1.1349,1.1349,1.1349,1.1349,1.1349,1.1349,1.0472,1.0538,1.0576,1.0668,1.0718,1.0788,1.0825,1.0877,1.0928,1.1015,1.1072,1.1117,1.1183,1.126,1.1324,1.1343,1.1367,1.1362,1.1385,1.1372,1.1373,1.1374,1.1361,1.1366,1.1366,1.1392,1.1392,1.1392]},{"header":{"parameterUnit":"m.s-1","parameterCategory":1,"la1":30.2991,"la2":30.254,"lo1":-89.0895,"lo2":-89.0444,"dy":0.0017,"dx":0.0017,"nx":28,"ny":28,"refTime":"2023-08-15T03:00:00:Z","depth":0,"parameterNumber":3,"parameterNumberName":"V-component_of_WINDS"},"data":[0,0,0,0,0,0,0,0,0,0,0,0,0,0,0,0,0,0,0,0,0,0,0,0,0,0,0,0,0,0,0,0,0,0,0,0,0,0,0,0,0,0,0,0,0,0,0,0,0,0,0,0,0,0,0,0,0,0,3.8678,3.8678,0,3.8662,3.8662,3.8662,3.8643,3.8643,3.8642,3.8642,3.8625,3.8624,3.8624,0,0,0,0,0,0,0,0,0,0,0,0,0,3.8692,3.8692,3.8678,3.8678,3.8678,3.8662,3.8662,3.8662,3.8643,3.8643,3.8642,3.8642,3.8625,3.8624,3.8624,0,0,0,0,0,0,0,0,0,0,0,0,0,3.8682,3.8692,3.8678,3.8667,3.8665,3.8662,3.8662,3.8662,3.8643,3.8643,3.8642,3.8642,3.8625,3.8624,3.8624,3.8631,0,0,3.8623,3.8623,0,0,0,0,0,0,0,0,3.8683,3.8682,3.8669,3.8667,3.8666,3.8654,3.8661,3.8651,3.8643,3.8651,3.8642,3.8641,3.8635,3.8634,3.8631,3.863,3.8629,3.8623,3.8623,3.8623,3.8623,0,0,0,0,0,0,0,3.8684,3.8682,3.8672,3.8668,3.8667,3.8662,3.866,3.8659,3.8646,3.8651,3.8649,3.8648,3.8634,3.8632,3.8631,3.8629,3.8623,3.8623,3.8623,3.8623,3.8632,3.8633,0,0,0,0,0,0,3.8686,3.8683,3.8672,3.8671,3.8674,3.8662,3.866,3.8658,3.8646,3.8643,3.8648,3.8647,3.8633,3.8631,3.863,3.8637,3.8623,3.8623,3.8623,3.8632,3.8632,3.8633,0,0,0,0,0,0,3.8687,3.8685,3.8673,3.8677,3.8675,3.8662,3.8661,3.8658,3.8656,3.8644,3.8641,3.8648,3.8632,3.8631,3.8631,3.8636,3.8623,3.8622,3.8631,3.8632,3.8632,3.865,0,0,0,0,0,0,3.8687,3.8686,3.8688,3.8677,3.8675,3.8674,3.8661,3.8658,3.8656,3.8654,3.8643,3.8641,3.8632,3.8631,3.8631,3.8635,3.8622,3.8631,3.8632,3.8632,3.8649,3.8651,3.8653,0,0,0,0,0,3.8688,3.8694,3.8688,3.8687,3.8678,3.8675,3.8673,3.8663,3.8656,3.8658,3.8651,3.8641,3.8636,3.8632,3.8631,3.8635,3.863,3.8631,3.8632,3.8648,3.8651,3.8653,0,0,0,0,0,0,3.8705,3.8692,3.8686,3.8689,3.8683,3.8671,3.8674,3.8666,3.8662,3.866,3.8647,3.8645,3.8646,3.8641,3.8637,3.8641,3.8632,3.8632,3.8644,3.8647,3.8649,3.8649,3.8622,0,0,0,0,0,3.871,3.8708,3.8697,3.87,3.8698,3.8687,3.8685,3.8677,3.867,3.8668,3.866,3.8654,3.865,3.8648,3.8645,3.8649,3.8646,3.8651,3.8653,3.8655,3.8656,3.8657,3.8659,3.8636,3.8636,3.8636,0,0,3.8718,3.8711,3.8711,3.8704,3.8698,3.8697,3.8685,3.8684,3.8682,3.8668,3.8667,3.8661,3.8653,3.8655,3.8656,3.8651,3.8661,3.8656,3.8658,3.8657,3.8658,3.866,3.8662,3.8636,3.8636,3.8636,0,0,3.8733,3.8728,3.873,3.8725,3.8717,3.871,3.871,3.87,3.8696,3.8695,3.8684,3.8682,3.8677,3.8672,3.8668,3.8682,3.8673,3.8681,3.8692,3.8693,3.8694,3.8696,3.87,3.8702,3.8682,3.8682,3.8682,0,3.8745,3.8743,3.8732,3.8732,3.8729,3.8716,3.8718,3.8713,3.8705,3.8703,3.8698,3.8691,3.8685,3.8685,3.8688,3.8686,3.8686,3.8682,3.8695,3.8697,3.8698,3.8701,3.8703,3.8683,3.8683,3.8683,3.8683,0,3.8757,3.8756,3.8758,3.875,3.8748,3.8749,3.8738,3.8737,3.873,3.8723,3.8722,3.8714,3.8709,3.8709,3.8702,3.8708,3.8705,3.8698,3.8688,3.8701,3.8704,3.8706,3.8684,3.8684,3.8684,3.8683,0,0,3.8781,3.8768,3.8769,3.8765,3.8756,3.8755,3.8755,3.875,3.8748,3.8743,3.8743,3.8739,3.8732,3.8728,3.8721,3.8722,3.8732,3.8715,3.8714,3.8717,3.8738,3.8742,3.8744,3.8727,3.8727,3.8727,3.8738,0,3.8794,3.8793,3.8784,3.8786,3.8785,3.8773,3.8773,3.8767,3.8761,3.8758,3.8751,3.8748,3.874,3.8738,3.8739,3.8731,3.8736,3.873,3.8725,3.8725,3.8726,3.8746,3.875,3.8761,3.8739,3.8739,3.8739,0,3.8808,3.8803,3.8805,3.8796,3.8795,3.8795,3.879,3.8788,3.8781,3.8776,3.8772,3.8764,3.8763,3.8755,3.8753,3.875,3.8747,3.8743,3.8743,3.8741,3.8732,3.8743,3.8764,3.8765,3.8741,3.8741,3.8741,0,3.8824,3.8819,3.8819,3.8817,3.8806,3.8806,3.8802,3.8795,3.8792,3.8787,3.8785,3.8781,3.8778,3.8774,3.8764,3.876,3.8764,3.8755,3.8759,3.8759,3.8759,3.8759,3.8779,3.876,3.876,3.876,3.876,0,3.8838,3.8839,3.8827,3.8827,3.8828,3.8818,3.8819,3.8813,3.8807,3.8806,3.8796,3.8794,3.8782,3.878,3.8772,3.8772,3.8771,3.8766,3.8764,3.8766,3.8767,3.8764,3.8762,3.876,3.876,3.876,3.876,0,3.8856,3.8847,3.8847,3.8837,3.8835,3.8836,3.8827,3.8827,3.882,3.8819,3.8818,3.8807,3.8804,3.8794,3.8788,3.8783,3.8784,3.8781,3.8786,3.8785,3.8789,3.8788,3.8806,3.8808,3.8789,3.8789,3.8789,0,3.8865,3.8866,3.8856,3.8855,3.8851,3.8848,3.8846,3.8836,3.8834,3.8826,3.8826,3.8822,3.8818,3.8813,3.8804,3.8799,3.8795,3.8802,3.8794,3.8797,3.8794,3.8794,3.8793,3.8803,3.8803,3.8804,3.8804,0,3.8881,3.8877,3.8874,3.8869,3.8867,3.8862,3.8858,3.8857,3.8846,3.8844,3.884,3.8837,3.8831,3.8827,3.8821,3.8816,3.8807,3.8806,3.8807,3.8809,3.8812,3.8809,3.8789,3.8806,3.8806,3.8805,3.8805,3.8805,3.8894,3.8894,3.8887,3.8884,3.888,3.8876,3.8875,3.8868,3.8865,3.8859,3.8854,3.8851,3.8844,3.8835,3.8831,3.8828,3.8824,3.8825,3.8825,3.8825,3.8826,3.8813,3.8827,3.8827,3.8827,3.8827,3.8826,0,3.8909,3.8904,3.8901,3.8895,3.8893,3.8886,3.8881,3.8879,3.8876,3.8871,3.8867,3.8863,3.8859,3.885,3.8845,3.8845,3.8841,3.8844,3.8843,3.8842,3.883,3.883,3.8847,3.8847,3.8847,3.8847,3.8847,3.8847,3.8916,3.8916,3.8911,3.8908,3.8903,3.89,3.8898,3.8894,3.8889,3.8885,3.8882,3.8877,3.887,3.8864,3.886,3.8858,3.8856,3.8859,3.8856,3.8845,3.8843,3.8841,3.884,3.8859,3.8859,3.8867,3.8868,3.8868]}]]